Location: Harbor Side
(32.6101°N, 117.0814°W)
Time: 07:51:17
(UTC+00:00)

ISS - Pass Details

Date: 21 April 2021
Orbit: 417 x 422 km, 51.6° (Epoch: 14 May)

Event Time Altitude Azimuth Distance (km) Brightness Sun altitude
Exits shadow 12:10:51 - 182° (S) 2,126 -0.4 -12.9°
Reaches altitude 10° 12:13:02 10° 160° (SSE) 1,491 -1.0 -12.5°
Maximum altitude 12:14:53 14° 126° (SE) 1,266 -0.9 -12.1°
Drops below altitude 10° 12:16:45 10° 93° (E) 1,497 0.2 -11.8°
Sets 12:19:35 0° 67° (ENE) 2,367 2.3 -11.2°
